Location: B�di�
(14.6834°N, 3.1047°W)
Time: 07:07:48
(UTC+00:00)

CZ-4 R/B - Pass Details

Date: 24 January 2020
Orbit: 534 x 597 km, 97.7° (Epoch: 17 February)

Event Time Altitude Azimuth Distance (km) Brightness Sun altitude
Rises 18:52:27 0° 168° (SSE) 2,709 4.9 -11.2°
Reaches altitude 10° 18:54:32 10° 168° (SSE) 1,826 4.0 -11.7°
Maximum altitude 18:58:30 90° 224° (SW) 564 1.3 -12.6°
Drops below altitude 10° 19:02:32 10° 349° (NNW) 1,866 4.0 -13.6°
Sets 19:04:42 0° 349° (N) 2,774 4.9 -14.1°
